This is the latest recevied weather packets stored in our database for station/object EB1TK-13. If no packets are shown the sender has not sent any weather packets the latest 10 day(s).
| Time | Temp. | Humidity | Pressure | Rain* | Wind** | Luminosity | Snow |
|---|---|---|---|---|---|---|---|
| 1777513336 | 14.44° C | 97% | 1011.2 hPa | 0 mm | - | - | - |
| 1777512736 | 14.44° C | 96% | 1011.1 hPa | 0 mm | - | - | - |
| 1777512137 | 14.44° C | 96% | 1010.9 hPa | 0 mm | - | - | - |
| 1777511537 | 14.44° C | 96% | 1011 hPa | 0 mm | - | - | - |
| 1777510935 | 14.44° C | 96% | 1010.9 hPa | 0 mm | - | - | - |
| 1777509736 | 15° C | 97% | 1010.6 hPa | 0 mm | - | - | - |
| 1777509136 | 14.44° C | 97% | 1010.6 hPa | 0 mm | - | - | - |
| 1777508536 | 13.89° C | 97% | 1010.7 hPa | 0 mm | - | - | - |
| 1777507937 | 13.33° C | 96% | 1010.6 hPa | 0 mm | - | - | - |
| 1777506735 | 14.44° C | 97% | 1010 hPa | 0 mm | - | - | - |
| 1777505536 | 13.33° C | 96% | 1009.8 hPa | 0 mm | - | - | - |
| 1777502535 | 13.89° C | 96% | 1009.4 hPa | 0 mm | - | - | - |
| 1777501935 | 13.89° C | 96% | 1009.4 hPa | 0 mm | - | - | - |
| 1777501336 | 13.89° C | 96% | 1009.4 hPa | 0 mm | - | - | - |
| 1777500736 | 13.89° C | 95% | 1009.4 hPa | 0 mm | - | - | - |
| 1777500136 | 13.89° C | 95% | 1009.3 hPa | 0 mm | - | - | - |
| 1777499537 | 13.89° C | 95% | 1009.1 hPa | 0 mm | - | - | - |
| 1777498337 | 14.44° C | 95% | 1009.1 hPa | 0 mm | - | - | - |
| 1777497735 | 14.44° C | 95% | 1009.1 hPa | 0 mm | - | - | - |
| 1777497136 | 14.44° C | 95% | 1008.9 hPa | 0 mm | - | - | - |
| 1777496536 | 14.44° C | 95% | 1008.7 hPa | 0 mm | - | - | - |
| 1777495937 | 14.44° C | 94% | 1008.7 hPa | 0 mm | - | - | - |
| 1777494735 | 14.44° C | 95% | 1008.3 hPa | 0 mm | - | - | - |
| 1777494135 | 14.44° C | 95% | 1008.4 hPa | 0 mm | - | - | - |
| 1777493536 | 14.44° C | 95% | 1008.4 hPa | 0 mm | - | - | - |
* Rain latest hour (hover to see other rain measurements)
** Current wind speed in m/s (hover to see current wind gust speed)